Time,TemperatureF,DewpointF,PressureIn,WindDirection,WindDirectionDegrees,WindSpeedMPH,WindSpeedGustMPH,Humidity,HourlyPrecipIn,Conditions,Clouds,dailyrainin,SolarRadiationWatts/m^2,SoftwareType,DateUTC
2013-07-13 00:00:00,56.6,50.8,30.13,East,90,0.0,2.0,81,0.00,,---,0.00,0.00,VWS V14.01,2013-07-13 07:00:00,
2013-07-13 00:05:00,56.4,50.7,30.14,East,90,0.0,1.0,81,0.00,,---,0.00,0.00,VWS V14.01,2013-07-13 07:05:00,
2013-07-13 00:10:00,56.2,50.5,30.14,ESE,112,0.0,2.0,81,0.00,,---,0.00,0.00,VWS V14.01,2013-07-13 07:10:00,
2013-07-13 00:15:00,55.9,50.8,30.14,ESE,112,0.0,0.0,83,0.00,,---,0.00,0.00,VWS V14.01,2013-07-13 07:15:00,
2013-07-13 00:20:00,55.4,50.7,30.14,ESE,112,0.0,0.0,84,0.00,,---,0.00,0.00,VWS V14.01,2013-07-13 07:20:00,
2013-07-13 00:25:00,55.1,50.4,30.14,ESE,112,0.0,0.0,84,0.00,,---,0.00,0.00,VWS V14.01,2013-07-13 07:25:00,
2013-07-13 00:30:00,54.8,50.1,30.14,ESE,112,0.0,1.0,84,0.00,,---,0.00,0.00,VWS V14.01,2013-07-13 07:30:00,
2013-07-13 00:35:00,54.9,49.8,30.15,ESE,112,0.0,2.0,83,0.00,,---,0.00,0.00,VWS V14.01,2013-07-13 07:35:00,
2013-07-13 00:40:00,55.0,49.6,30.14,ESE,112,0.0,1.0,82,0.00,,---,0.00,0.00,VWS V14.01,2013-07-13 07:40:00,
2013-07-13 00:45:00,54.9,49.5,30.14,East,90,0.0,2.0,82,0.00,,---,0.00,0.00,VWS V14.01,2013-07-13 07:45:00,
2013-07-13 00:50:00,55.0,49.3,30.15,East,90,0.0,1.0,81,0.01,,---,0.01,0.00,VWS V14.01,2013-07-13 07:50:00,
2013-07-13 00:55:00,54.9,48.9,30.15,East,90,0.0,1.0,80,0.01,,---,0.01,0.00,VWS V14.01,2013-07-13 07:55:00,
2013-07-13 01:00:00,54.6,48.6,30.15,East,90,0.0,0.0,80,0.01,,---,0.01,0.00,VWS V14.01,2013-07-13 08:00:00,
2013-07-13 01:05:00,54.5,48.8,30.15,East,90,0.0,0.0,81,0.01,,---,0.01,0.00,VWS V14.01,2013-07-13 08:05:00,
2013-07-13 01:10:00,54.4,48.7,30.15,East,90,0.0,0.0,81,0.01,,---,0.01,0.00,VWS V14.01,2013-07-13 08:10:00,
2013-07-13 01:15:00,54.4,48.4,30.15,East,90,0.0,1.0,80,0.01,,---,0.01,0.00,VWS V14.01,2013-07-13 08:15:00,
2013-07-13 01:20:00,54.3,48.3,30.15,East,90,0.0,0.0,80,0.01,,---,0.01,0.00,VWS V14.01,2013-07-13 08:20:00,
2013-07-13 01:25:00,54.4,48.4,30.15,East,90,0.0,1.0,80,0.01,,---,0.01,0.00,VWS V14.01,2013-07-13 08:25:00,
2013-07-13 01:30:00,54.4,48.0,30.15,East,90,0.0,1.0,79,0.01,,---,0.01,0.00,VWS V14.01,2013-07-13 08:30:00,
2013-07-13 01:35:00,54.2,48.2,30.15,East,90,0.0,1.0,80,0.01,,---,0.01,0.00,VWS V14.01,2013-07-13 08:35:00,
2013-07-13 01:40:00,54.1,48.1,30.15,East,90,0.0,0.0,80,0.01,,---,0.01,0.00,VWS V14.01,2013-07-13 08:40:00,
2013-07-13 01:45:00,54.1,48.1,30.15,East,90,0.0,0.0,80,0.01,,---,0.01,0.00,VWS V14.01,2013-07-13 08:45:00,
2013-07-13 01:50:00,53.9,48.2,30.15,East,90,0.0,0.0,81,0.01,,---,0.01,0.00,VWS V14.01,2013-07-13 08:50:00,
2013-07-13 01:55:00,53.4,48.0,30.15,East,90,0.0,0.0,82,0.00,,---,0.01,0.00,VWS V14.01,2013-07-13 08:55:00,
2013-07-13 02:00:00,53.3,48.3,30.15,East,90,0.0,0.0,83,0.00,,---,0.01,0.00,VWS V14.01,2013-07-13 09:00:00,
2013-07-13 02:05:00,53.4,48.4,30.15,East,90,0.0,0.0,83,0.00,,---,0.01,0.00,VWS V14.01,2013-07-13 09:05:00,
2013-07-13 02:10:00,53.2,48.2,30.15,East,90,0.0,0.0,83,0.00,,---,0.01,0.00,VWS V14.01,2013-07-13 09:10:00,
2013-07-13 02:15:00,52.9,48.2,30.15,East,90,0.0,0.0,84,0.00,,---,0.01,0.00,VWS V14.01,2013-07-13 09:15:00,
2013-07-13 02:20:00,52.6,48.2,30.15,East,90,0.0,0.0,85,0.00,,---,0.01,0.00,VWS V14.01,2013-07-13 09:20:00,
2013-07-13 02:25:00,52.5,48.1,30.15,East,90,0.0,0.0,85,0.00,,---,0.01,0.00,VWS V14.01,2013-07-13 09:25:00,
2013-07-13 02:30:00,52.1,48.0,30.16,East,90,0.0,0.0,86,0.00,,---,0.01,0.00,VWS V14.01,2013-07-13 09:30:00,
2013-07-13 02:35:00,51.8,48.1,30.15,East,90,0.0,0.0,87,0.00,,---,0.01,0.00,VWS V14.01,2013-07-13 09:35:00,
2013-07-13 02:40:00,51.7,48.0,30.15,East,90,0.0,0.0,87,0.00,,---,0.01,0.00,VWS V14.01,2013-07-13 09:40:00,
2013-07-13 02:45:00,51.7,48.0,30.15,East,90,0.0,0.0,87,0.00,,---,0.01,0.00,VWS V14.01,2013-07-13 09:45:00,
2013-07-13 02:50:00,51.5,47.8,30.16,East,90,0.0,1.0,87,0.00,,---,0.01,0.00,VWS V14.01,2013-07-13 09:50:00,
2013-07-13 02:55:00,51.4,48.0,30.16,East,90,0.0,0.0,88,0.00,,---,0.01,0.00,VWS V14.01,2013-07-13 09:55:00,
2013-07-13 03:00:00,51.2,47.8,30.16,East,90,0.0,0.0,88,0.00,,---,0.01,0.00,VWS V14.01,2013-07-13 10:00:00,
2013-07-13 03:05:00,51.2,47.8,30.16,East,90,0.0,1.0,88,0.00,,---,0.01,0.00,VWS V14.01,2013-07-13 10:05:00,
2013-07-13 03:10:00,51.2,47.8,30.16,East,90,0.0,0.0,88,0.00,,---,0.01,0.00,VWS V14.01,2013-07-13 10:10:00,
2013-07-13 03:15:00,51.3,47.9,30.16,East,90,0.0,0.0,88,0.00,,---,0.01,0.00,VWS V14.01,2013-07-13 10:15:00,
2013-07-13 03:20:00,51.2,47.8,30.16,East,90,0.0,1.0,88,0.00,,---,0.01,0.00,VWS V14.01,2013-07-13 10:20:00,
2013-07-13 03:25:00,51.0,47.6,30.16,East,90,0.0,1.0,88,0.00,,---,0.01,0.00,VWS V14.01,2013-07-13 10:25:00,
2013-07-13 03:30:00,50.9,47.5,30.16,East,90,0.0,1.0,88,0.00,,---,0.01,0.00,VWS V14.01,2013-07-13 10:30:00,
2013-07-13 03:35:00,50.6,47.5,30.17,East,90,0.0,0.0,89,0.00,,---,0.01,0.00,VWS V14.01,2013-07-13 10:35:00,
2013-07-13 03:40:00,50.3,47.2,30.17,East,90,0.0,1.0,89,0.00,,---,0.01,0.00,VWS V14.01,2013-07-13 10:40:00,
2013-07-13 03:45:00,50.4,47.3,30.17,East,90,0.0,1.0,89,0.00,,---,0.01,0.00,VWS V14.01,2013-07-13 10:45:00,
2013-07-13 03:50:00,50.4,47.6,30.17,East,90,0.0,0.0,90,0.00,,---,0.01,0.00,VWS V14.01,2013-07-13 10:50:00,
2013-07-13 03:55:00,50.3,47.5,30.17,East,90,0.0,0.0,90,0.00,,---,0.01,0.00,VWS V14.01,2013-07-13 10:55:00,
2013-07-13 04:00:00,50.2,47.4,30.17,East,90,0.0,0.0,90,0.00,,---,0.01,0.00,VWS V14.01,2013-07-13 11:00:00,
2013-07-13 04:05:00,50.0,47.2,30.17,East,90,0.0,0.0,90,0.00,,---,0.01,0.00,VWS V14.01,2013-07-13 11:05:00,
2013-07-13 04:10:00,50.0,47.5,30.17,East,90,0.0,0.0,91,0.00,,---,0.01,0.00,VWS V14.01,2013-07-13 11:10:00,
2013-07-13 04:15:00,50.0,47.8,30.17,East,90,0.0,1.0,92,0.00,,---,0.01,0.00,VWS V14.01,2013-07-13 11:15:00,
2013-07-13 04:20:00,49.9,47.4,30.17,East,90,0.0,1.0,91,0.00,,---,0.01,0.00,VWS V14.01,2013-07-13 11:20:00,
2013-07-13 04:25:00,49.8,47.6,30.17,East,90,0.0,0.0,92,0.00,,---,0.01,0.00,VWS V14.01,2013-07-13 11:25:00,
2013-07-13 04:30:00,50.2,48.0,30.17,East,90,0.0,0.0,92,0.00,,---,0.01,0.00,VWS V14.01,2013-07-13 11:30:00,
2013-07-13 04:35:00,50.3,48.1,30.18,East,90,0.0,0.0,92,0.00,,---,0.01,0.00,VWS V14.01,2013-07-13 11:35:00,
2013-07-13 04:40:00,50.1,47.6,30.17,East,90,0.0,1.0,91,0.00,,---,0.01,0.00,VWS V14.01,2013-07-13 11:40:00,
2013-07-13 04:45:00,50.0,47.5,30.17,East,90,0.0,1.0,91,0.00,,---,0.01,0.00,VWS V14.01,2013-07-13 11:45:00,
2013-07-13 04:50:00,50.0,47.5,30.17,East,90,0.0,1.0,91,0.00,,---,0.01,0.00,VWS V14.01,2013-07-13 11:50:00,
2013-07-13 04:55:00,49.9,47.4,30.17,East,90,0.0,1.0,91,0.00,,---,0.01,0.00,VWS V14.01,2013-07-13 11:55:00,
2013-07-13 05:00:00,49.7,47.2,30.17,East,90,0.0,0.0,91,0.00,,---,0.01,0.00,VWS V14.01,2013-07-13 12:00:00,
2013-07-13 05:05:00,49.6,47.4,30.18,East,90,0.0,1.0,92,0.00,,---,0.01,0.00,VWS V14.01,2013-07-13 12:05:00,
2013-07-13 05:10:00,49.5,47.3,30.18,East,90,0.0,0.0,92,0.00,,---,0.01,0.00,VWS V14.01,2013-07-13 12:10:00,
2013-07-13 05:15:00,49.5,47.3,30.18,East,90,0.0,1.0,92,0.00,,---,0.01,0.00,VWS V14.01,2013-07-13 12:15:00,
2013-07-13 05:20:00,49.5,47.3,30.18,East,90,0.0,0.0,92,0.00,,---,0.01,0.00,VWS V14.01,2013-07-13 12:20:00,
2013-07-13 05:25:00,49.4,47.2,30.18,East,90,0.0,0.0,92,0.00,,---,0.01,0.00,VWS V14.01,2013-07-13 12:25:00,
2013-07-13 05:30:00,49.2,47.0,30.18,East,90,0.0,1.0,92,0.00,,---,0.01,1.00,VWS V14.01,2013-07-13 12:30:00,
2013-07-13 05:35:00,49.2,47.0,30.18,East,90,0.0,0.0,92,0.00,,---,0.01,6.00,VWS V14.01,2013-07-13 12:35:00,
2013-07-13 05:40:00,49.1,46.9,30.19,East,90,0.0,0.0,92,0.00,,---,0.01,8.00,VWS V14.01,2013-07-13 12:40:00,
2013-07-13 05:45:00,49.0,47.1,30.19,East,90,0.0,0.0,93,0.00,,---,0.01,10.00,VWS V14.01,2013-07-13 12:45:00,
2013-07-13 05:50:00,48.9,47.0,30.19,East,90,0.0,0.0,93,0.00,,---,0.01,12.00,VWS V14.01,2013-07-13 12:50:00,
2013-07-13 05:55:00,49.1,47.5,30.19,East,90,0.0,1.0,94,0.00,,---,0.01,14.00,VWS V14.01,2013-07-13 12:55:00,
2013-07-13 06:00:00,49.7,47.2,30.17,East,90,0.0,0.0,91,0.00,,---,0.01,0.00,VWS V14.01,2013-07-13 13:00:00,
2013-07-13 06:02:00,49.1,47.5,30.19,East,90,0.0,1.0,94,0.00,,---,0.01,14.00,VWS V14.01,2013-07-13 13:02:00,
2013-07-13 06:05:00,49.4,47.5,30.19,East,84,0.0,0.0,93,0.00,,---,0.01,19.00,VWS V14.01,2013-07-13 13:05:00,
2013-07-13 06:07:00,49.5,47.6,30.19,East,83,0.0,0.0,93,0.00,,---,0.01,19.00,VWS V14.01,2013-07-13 13:07:00,
2013-07-13 06:10:00,49.4,47.5,30.19,East,82,0.0,0.0,93,0.00,,---,0.01,21.00,VWS V14.01,2013-07-13 13:10:00,
2013-07-13 06:12:00,49.3,47.4,30.19,East,82,0.0,0.0,93,0.00,,---,0.01,25.00,VWS V14.01,2013-07-13 13:12:00,
2013-07-13 06:15:00,49.4,47.5,30.19,East,82,0.0,0.0,93,0.00,,---,0.01,23.00,VWS V14.01,2013-07-13 13:15:00,
2013-07-13 06:17:00,49.4,47.5,30.19,East,84,0.0,0.0,93,0.00,,---,0.01,23.00,VWS V14.01,2013-07-13 13:17:00,
2013-07-13 06:20:00,49.3,47.4,30.19,East,83,0.0,0.0,93,0.00,,---,0.01,25.00,VWS V14.01,2013-07-13 13:20:00,
2013-07-13 06:22:00,49.3,47.7,30.20,East,84,0.0,0.0,94,0.00,,---,0.01,25.00,VWS V14.01,2013-07-13 13:22:00,
2013-07-13 06:25:00,49.5,47.8,30.19,East,84,0.0,0.0,94,0.00,,---,0.01,25.00,VWS V14.01,2013-07-13 13:25:00,
2013-07-13 06:27:00,49.7,48.0,30.20,East,84,0.0,0.0,94,0.00,,---,0.01,26.00,VWS V14.01,2013-07-13 13:27:00,
2013-07-13 06:30:00,49.8,47.9,30.20,East,83,0.0,0.0,93,0.00,,---,0.01,26.00,VWS V14.01,2013-07-13 13:30:00,
2013-07-13 06:32:00,49.7,47.8,30.20,East,82,0.0,0.0,93,0.00,,---,0.01,28.00,VWS V14.01,2013-07-13 13:32:00,
2013-07-13 06:35:00,49.8,48.2,30.20,East,84,0.0,0.0,94,0.00,,---,0.01,28.00,VWS V14.01,2013-07-13 13:35:00,
2013-07-13 06:37:00,50.1,48.4,30.20,East,82,0.0,0.0,94,0.00,,---,0.01,30.00,VWS V14.01,2013-07-13 13:37:00,
2013-07-13 06:40:00,50.4,48.7,30.20,East,84,0.0,0.0,94,0.00,,---,0.01,30.00,VWS V14.01,2013-07-13 13:40:00,
2013-07-13 06:42:00,50.8,48.8,30.20,East,83,0.0,0.0,93,0.00,,---,0.01,30.00,VWS V14.01,2013-07-13 13:42:00,
2013-07-13 06:45:00,51.0,49.0,30.20,East,83,0.0,0.0,93,0.00,,---,0.01,32.00,VWS V14.01,2013-07-13 13:45:00,
2013-07-13 06:47:00,51.0,48.8,30.20,East,83,0.0,0.0,92,0.00,,---,0.01,33.00,VWS V14.01,2013-07-13 13:47:00,
2013-07-13 06:50:00,51.0,48.8,30.20,East,83,0.0,0.0,92,0.00,,---,0.01,33.00,VWS V14.01,2013-07-13 13:50:00,
2013-07-13 06:52:00,51.1,49.2,30.20,East,83,0.0,0.0,93,0.00,,---,0.01,35.00,VWS V14.01,2013-07-13 13:52:00,
2013-07-13 06:55:00,51.3,49.3,30.20,East,84,0.0,0.0,93,0.00,,---,0.01,67.00,VWS V14.01,2013-07-13 13:55:00,
2013-07-13 06:57:00,51.5,49.3,30.21,East,84,0.0,0.0,92,0.00,,---,0.01,125.00,VWS V14.01,2013-07-13 13:57:00,
2013-07-13 07:00:00,51.7,49.5,30.21,East,84,0.0,0.0,92,0.00,,---,0.01,144.00,VWS V14.01,2013-07-13 14:00:00,
2013-07-13 07:02:00,51.9,49.4,30.21,East,84,0.0,0.0,91,0.00,,---,0.01,156.00,VWS V14.01,2013-07-13 14:02:00,
2013-07-13 07:05:00,52.0,49.5,30.21,East,84,0.0,0.0,91,0.00,,---,0.01,160.00,VWS V14.01,2013-07-13 14:05:00,
2013-07-13 07:07:00,52.5,50.2,30.21,East,83,0.0,1.0,92,0.00,,---,0.01,171.00,VWS V14.01,2013-07-13 14:07:00,
2013-07-13 07:10:00,52.9,50.6,30.21,East,83,0.0,2.0,92,0.00,,---,0.01,176.00,VWS V14.01,2013-07-13 14:10:00,
2013-07-13 07:12:00,53.3,50.7,30.21,East,83,0.0,0.0,91,0.00,,---,0.01,186.00,VWS V14.01,2013-07-13 14:12:00,
2013-07-13 07:15:00,53.4,50.8,30.21,East,83,0.0,0.0,91,0.00,,---,0.01,190.00,VWS V14.01,2013-07-13 14:15:00,
2013-07-13 07:17:00,53.5,50.6,30.21,East,83,0.0,1.0,90,0.00,,---,0.01,200.00,VWS V14.01,2013-07-13 14:17:00,
2013-07-13 07:20:00,53.5,50.3,30.21,East,83,0.0,1.0,89,0.00,,---,0.01,206.00,VWS V14.01,2013-07-13 14:20:00,
2013-07-13 07:22:00,53.7,50.5,30.21,East,83,0.0,0.0,89,0.00,,---,0.01,209.00,VWS V14.01,2013-07-13 14:22:00,
2013-07-13 07:25:00,53.9,50.7,30.21,East,84,0.0,0.0,89,0.00,,---,0.01,216.00,VWS V14.01,2013-07-13 14:25:00,
2013-07-13 07:27:00,54.0,50.8,30.21,East,83,0.0,0.0,89,0.00,,---,0.01,225.00,VWS V14.01,2013-07-13 14:27:00,
2013-07-13 07:30:00,54.1,50.6,30.21,East,83,0.0,0.0,88,0.00,,---,0.01,230.00,VWS V14.01,2013-07-13 14:30:00,
2013-07-13 07:32:00,54.3,50.8,30.21,East,84,0.0,0.0,88,0.00,,---,0.01,237.00,VWS V14.01,2013-07-13 14:32:00,
2013-07-13 07:35:00,54.3,50.8,30.21,East,84,0.0,0.0,88,0.00,,---,0.01,243.00,VWS V14.01,2013-07-13 14:35:00,
2013-07-13 07:37:00,54.5,50.7,30.21,East,84,0.0,0.0,87,0.00,,---,0.01,255.00,VWS V14.01,2013-07-13 14:37:00,
2013-07-13 07:40:00,54.9,50.8,30.21,East,83,0.0,0.0,86,0.00,,---,0.01,260.00,VWS V14.01,2013-07-13 14:40:00,
2013-07-13 07:42:00,55.3,50.9,30.21,East,83,0.0,0.0,85,0.00,,---,0.01,269.00,VWS V14.01,2013-07-13 14:42:00,
2013-07-13 07:45:00,55.2,50.8,30.21,East,84,0.0,0.0,85,0.00,,---,0.01,274.00,VWS V14.01,2013-07-13 14:45:00,
2013-07-13 07:47:00,55.3,50.9,30.21,East,84,0.0,0.0,85,0.00,,---,0.01,283.00,VWS V14.01,2013-07-13 14:47:00,
2013-07-13 07:50:00,55.2,50.8,30.22,East,83,0.0,0.0,85,0.00,,---,0.01,288.00,VWS V14.01,2013-07-13 14:50:00,
2013-07-13 07:52:00,55.1,50.7,30.22,East,84,0.0,0.0,85,0.00,,---,0.01,295.00,VWS V14.01,2013-07-13 14:52:00,
2013-07-13 07:55:00,55.1,50.4,30.22,East,83,1.0,1.0,84,0.00,,---,0.01,301.00,VWS V14.01,2013-07-13 14:55:00,
2013-07-13 07:57:00,55.2,50.5,30.21,ESE,108,1.0,2.0,84,0.00,,---,0.01,309.00,VWS V14.01,2013-07-13 14:57:00,
2013-07-13 08:00:00,55.2,50.5,30.22,ESE,108,1.0,2.0,84,0.00,,---,0.01,315.00,VWS V14.01,2013-07-13 15:00:00,
2013-07-13 08:02:00,55.4,50.7,30.22,ESE,108,0.0,1.0,84,0.00,,---,0.01,323.00,VWS V14.01,2013-07-13 15:02:00,
2013-07-13 08:05:00,55.6,50.5,30.22,ESE,108,0.0,1.0,83,0.00,,---,0.01,330.00,VWS V14.01,2013-07-13 15:05:00,
2013-07-13 08:10:00,52.9,50.6,30.21,East,83,0.0,2.0,92,0.00,,---,0.01,176.00,VWS V14.01,2013-07-13 15:10:00,
2013-07-13 08:15:00,55.6,50.5,30.22,ESE,108,0.0,0.0,83,0.00,,---,0.01,330.00,VWS V14.01,2013-07-13 15:15:00,
2013-07-13 08:20:00,56.6,49.8,30.22,NNW,337,0.0,0.0,78,0.00,,---,0.01,373.00,VWS V14.01,2013-07-13 15:20:00,
2013-07-13 08:25:00,57.2,50.1,30.22,NNW,342,0.0,1.0,77,0.00,,---,0.01,388.00,VWS V14.01,2013-07-13 15:25:00,
2013-07-13 08:30:00,57.2,49.7,30.22,NNW,342,0.0,0.0,76,0.00,,---,0.01,401.00,VWS V14.01,2013-07-13 15:30:00,
2013-07-13 08:35:00,57.5,50.7,30.22,North,350,0.0,0.0,78,0.00,,---,0.01,413.00,VWS V14.01,2013-07-13 15:35:00,
2013-07-13 08:40:00,57.6,50.8,30.22,NNW,339,1.0,1.0,78,0.00,,---,0.01,425.00,VWS V14.01,2013-07-13 15:40:00,
2013-07-13 08:45:00,57.5,50.0,30.22,NNW,339,1.0,1.0,76,0.00,,---,0.01,441.00,VWS V14.01,2013-07-13 15:45:00,
2013-07-13 08:50:00,57.9,50.7,30.22,North,360,0.0,2.0,77,0.00,,---,0.01,457.00,VWS V14.01,2013-07-13 15:50:00,
2013-07-13 08:55:00,58.3,50.4,30.22,ENE,73,1.0,2.0,75,0.00,,---,0.01,471.00,VWS V14.01,2013-07-13 15:55:00,
2013-07-13 09:00:00,58.9,50.6,30.22,North,9,1.0,2.0,74,0.00,,---,0.01,487.00,VWS V14.01,2013-07-13 16:00:00,
2013-07-13 09:05:00,58.7,51.5,30.22,NNW,341,3.0,3.0,77,0.00,,---,0.01,497.00,VWS V14.01,2013-07-13 16:05:00,
2013-07-13 09:10:00,58.9,50.6,30.22,NNW,341,2.0,2.0,74,0.00,,---,0.01,513.00,VWS V14.01,2013-07-13 16:10:00,
2013-07-13 09:15:00,59.2,50.9,30.22,North,355,1.0,1.0,74,0.00,,---,0.01,526.00,VWS V14.01,2013-07-13 16:15:00,
2013-07-13 09:20:00,59.4,50.8,30.22,NW,312,3.0,5.0,73,0.00,,---,0.01,540.00,VWS V14.01,2013-07-13 16:20:00,
2013-07-13 09:25:00,59.8,51.5,30.23,NW,317,4.0,4.0,74,0.00,,---,0.01,552.00,VWS V14.01,2013-07-13 16:25:00,
2013-07-13 09:30:00,60.0,51.7,30.23,NNW,333,2.0,3.0,74,0.00,,---,0.01,564.00,VWS V14.01,2013-07-13 16:30:00,
2013-07-13 09:35:00,60.2,53.0,30.22,NNW,342,1.0,3.0,77,0.00,,---,0.01,578.00,VWS V14.01,2013-07-13 16:35:00,
2013-07-13 09:40:00,60.4,51.0,30.22,NE,46,0.0,0.0,71,0.00,,---,0.01,589.00,VWS V14.01,2013-07-13 16:40:00,
2013-07-13 09:45:00,60.7,50.9,30.22,SSE,147,0.0,0.0,70,0.00,,---,0.01,601.00,VWS V14.01,2013-07-13 16:45:00,
2013-07-13 09:50:00,61.1,52.4,30.22,North,355,3.0,3.0,73,0.00,,---,0.01,615.00,VWS V14.01,2013-07-13 16:50:00,
2013-07-13 09:55:00,61.4,52.7,30.22,West,276,2.0,4.0,73,0.00,,---,0.01,626.00,VWS V14.01,2013-07-13 16:55:00,
2013-07-13 10:00:00,61.6,52.5,30.22,North,355,2.0,3.0,72,0.00,,---,0.01,638.00,VWS V14.01,2013-07-13 17:00:00,
2013-07-13 10:05:00,61.3,51.5,30.22,NW,323,2.0,2.0,70,0.00,,---,0.01,650.00,VWS V14.01,2013-07-13 17:05:00,
2013-07-13 10:10:00,61.7,52.2,30.22,ENE,63,2.0,2.0,71,0.00,,---,0.01,661.00,VWS V14.01,2013-07-13 17:10:00,
2013-07-13 10:15:00,61.9,52.0,30.22,North,355,1.0,1.0,70,0.00,,---,0.01,671.00,VWS V14.01,2013-07-13 17:15:00,
2013-07-13 10:20:00,62.4,52.9,30.22,NNE,26,2.0,2.0,71,0.00,,---,0.01,682.00,VWS V14.01,2013-07-13 17:20:00,
2013-07-13 10:25:00,62.3,52.4,30.21,North,360,0.0,0.0,70,0.00,,---,0.01,694.00,VWS V14.01,2013-07-13 17:25:00,
2013-07-13 10:30:00,63.2,54.0,30.21,NE,51,2.0,3.0,72,0.00,,---,0.01,707.00,VWS V14.01,2013-07-13 17:30:00,
2013-07-13 10:35:00,63.4,52.7,30.21,ENE,78,0.0,0.0,68,0.00,,---,0.01,715.00,VWS V14.01,2013-07-13 17:35:00,
2013-07-13 10:40:00,63.6,54.4,30.21,WNW,284,3.0,4.0,72,0.00,,---,0.01,728.00,VWS V14.01,2013-07-13 17:40:00,
2013-07-13 10:45:00,63.5,53.9,30.21,WNW,288,1.0,2.0,71,0.00,,---,0.01,738.00,VWS V14.01,2013-07-13 17:45:00,
2013-07-13 10:50:00,63.4,52.7,30.21,SSW,199,2.0,3.0,68,0.00,,---,0.01,749.00,VWS V14.01,2013-07-13 17:50:00,
2013-07-13 10:55:00,63.6,52.9,30.21,NW,306,0.0,4.0,68,0.00,,---,0.01,759.00,VWS V14.01,2013-07-13 17:55:00,
2013-07-13 11:00:00,63.9,53.9,30.21,NNW,347,1.0,2.0,70,0.00,,---,0.01,759.00,VWS V14.01,2013-07-13 18:00:00,
2013-07-13 11:05:00,64.1,53.7,30.21,NW,317,0.0,1.0,69,0.00,,---,0.01,766.00,VWS V14.01,2013-07-13 18:05:00,
2013-07-13 11:10:00,64.0,53.2,30.21,NW,325,3.0,3.0,68,0.00,,---,0.01,780.00,VWS V14.01,2013-07-13 18:10:00,
2013-07-13 11:15:00,64.7,53.9,30.20,NNW,335,4.0,4.0,68,0.00,,---,0.01,789.00,VWS V14.01,2013-07-13 18:15:00,
2013-07-13 11:20:00,64.9,53.7,30.20,West,263,3.0,3.0,67,0.00,,---,0.01,802.00,VWS V14.01,2013-07-13 18:20:00,
2013-07-13 11:25:00,65.0,54.2,30.20,WNW,302,0.0,3.0,68,0.00,,---,0.01,810.00,VWS V14.01,2013-07-13 18:25:00,
2013-07-13 11:30:00,65.6,54.4,30.20,NW,316,6.0,7.0,67,0.00,,---,0.01,700.00,VWS V14.01,2013-07-13 18:30:00,
2013-07-13 11:35:00,65.6,54.4,30.20,NNE,30,4.0,4.0,67,0.00,,---,0.01,821.00,VWS V14.01,2013-07-13 18:35:00,
2013-07-13 11:40:00,66.0,53.9,30.20,West,269,3.0,4.0,65,0.00,,---,0.01,828.00,VWS V14.01,2013-07-13 18:40:00,
2013-07-13 11:45:00,65.9,53.4,30.20,NW,306,5.0,5.0,64,0.00,,---,0.01,830.00,VWS V14.01,2013-07-13 18:45:00,
2013-07-13 11:50:00,66.4,53.9,30.20,West,281,5.0,7.0,64,0.00,,---,0.01,838.00,VWS V14.01,2013-07-13 18:50:00,
2013-07-13 11:55:00,66.6,53.6,30.20,WNW,299,6.0,7.0,63,0.00,,---,0.01,844.00,VWS V14.01,2013-07-13 18:55:00,
2013-07-13 12:00:00,66.6,54.1,30.20,West,268,2.0,5.0,64,0.00,,---,0.01,849.00,VWS V14.01,2013-07-13 19:00:00,
2013-07-13 12:05:00,67.2,53.3,30.20,NNW,329,3.0,4.0,61,0.00,,---,0.01,851.00,VWS V14.01,2013-07-13 19:05:00,
2013-07-13 12:10:00,67.1,53.7,30.19,NNW,331,7.0,8.0,62,0.00,,---,0.01,856.00,VWS V14.01,2013-07-13 19:10:00,
2013-07-13 12:15:00,67.0,53.6,30.19,West,262,6.0,6.0,62,0.00,,---,0.01,861.00,VWS V14.01,2013-07-13 19:15:00,
2013-07-13 12:20:00,67.5,54.0,30.19,NNW,339,4.0,8.0,62,0.00,,---,0.01,863.00,VWS V14.01,2013-07-13 19:20:00,
2013-07-13 12:25:00,67.8,53.9,30.19,NW,311,4.0,6.0,61,0.00,,---,0.01,865.00,VWS V14.01,2013-07-13 19:25:00,
2013-07-13 12:30:00,67.9,54.0,30.19,WNW,299,4.0,4.0,61,0.00,,---,0.01,872.00,VWS V14.01,2013-07-13 19:30:00,
2013-07-13 12:35:00,67.7,53.3,30.19,WNW,298,4.0,5.0,60,0.00,,---,0.01,870.00,VWS V14.01,2013-07-13 19:35:00,
2013-07-13 12:40:00,68.0,52.7,30.19,WNW,298,6.0,8.0,58,0.00,,---,0.01,879.00,VWS V14.01,2013-07-13 19:40:00,
2013-07-13 12:45:00,68.3,54.8,30.19,WNW,294,3.0,6.0,62,0.00,,---,0.01,879.00,VWS V14.01,2013-07-13 19:45:00,
2013-07-13 12:50:00,68.7,54.3,30.19,NW,317,4.0,8.0,60,0.00,,---,0.01,879.00,VWS V14.01,2013-07-13 19:50:00,
2013-07-13 12:55:00,68.7,53.3,30.19,NW,307,6.0,7.0,58,0.00,,---,0.01,882.00,VWS V14.01,2013-07-13 19:55:00,
2013-07-13 13:00:00,68.9,54.0,30.19,WSW,246,5.0,5.0,59,0.00,,---,0.01,886.00,VWS V14.01,2013-07-13 20:00:00,
2013-07-13 13:05:00,69.2,54.3,30.19,WNW,302,5.0,7.0,59,0.00,,---,0.01,888.00,VWS V14.01,2013-07-13 20:05:00,
2013-07-13 13:10:00,68.9,53.5,30.19,WNW,295,4.0,4.0,58,0.00,,---,0.01,889.00,VWS V14.01,2013-07-13 20:10:00,
2013-07-13 13:15:00,69.4,54.0,30.19,NNW,342,3.0,10.0,58,0.00,,---,0.01,889.00,VWS V14.01,2013-07-13 20:15:00,
2013-07-13 13:20:00,69.3,53.4,30.19,West,278,1.0,4.0,57,0.00,,---,0.01,888.00,VWS V14.01,2013-07-13 20:20:00,
2013-07-13 13:25:00,69.4,54.0,30.19,SW,229,6.0,11.0,58,0.00,,---,0.01,891.00,VWS V14.01,2013-07-13 20:25:00,
2013-07-13 13:30:00,69.3,53.0,30.19,NW,313,4.0,4.0,56,0.00,,---,0.01,888.00,VWS V14.01,2013-07-13 20:30:00,
2013-07-13 13:35:00,69.7,53.3,30.19,NNW,332,3.0,6.0,56,0.00,,---,0.01,888.00,VWS V14.01,2013-07-13 20:35:00,
2013-07-13 13:40:00,70.3,53.4,30.19,NW,314,11.0,11.0,55,0.00,,---,0.01,888.00,VWS V14.01,2013-07-13 20:40:00,
2013-07-13 13:45:00,70.4,53.0,30.18,East,92,0.0,1.0,54,0.00,,---,0.01,886.00,VWS V14.01,2013-07-13 20:45:00,
2013-07-13 13:50:00,70.3,53.9,30.18,West,259,4.0,6.0,56,0.00,,---,0.01,884.00,VWS V14.01,2013-07-13 20:50:00,
2013-07-13 13:55:00,70.3,52.4,30.18,NW,321,7.0,7.0,53,0.00,,---,0.01,882.00,VWS V14.01,2013-07-13 20:55:00,
2013-07-13 14:00:00,70.3,51.9,30.18,North,349,3.0,4.0,52,0.00,,---,0.01,877.00,VWS V14.01,2013-07-13 21:00:00,
2013-07-13 14:05:00,70.6,53.2,30.18,NNW,331,8.0,8.0,54,0.00,,---,0.01,879.00,VWS V14.01,2013-07-13 21:05:00,
2013-07-13 14:10:00,70.8,52.8,30.18,NNW,328,4.0,6.0,53,0.00,,---,0.01,875.00,VWS V14.01,2013-07-13 21:10:00,
2013-07-13 14:15:00,70.5,52.6,30.17,NW,325,6.0,7.0,53,0.00,,---,0.01,872.00,VWS V14.01,2013-07-13 21:15:00,
2013-07-13 14:20:00,70.7,51.2,30.17,NW,321,5.0,8.0,50,0.00,,---,0.01,868.00,VWS V14.01,2013-07-13 21:20:00,
2013-07-13 14:25:00,71.0,52.5,30.17,NW,320,6.0,7.0,52,0.00,,---,0.01,865.00,VWS V14.01,2013-07-13 21:25:00,
2013-07-13 14:30:00,70.9,52.4,30.17,WSW,244,3.0,6.0,52,0.00,,---,0.01,861.00,VWS V14.01,2013-07-13 21:30:00,
2013-07-13 14:35:00,71.1,52.1,30.17,NW,321,4.0,7.0,51,0.00,,---,0.01,856.00,VWS V14.01,2013-07-13 21:35:00,
2013-07-13 14:40:00,71.6,52.0,30.17,West,277,4.0,5.0,50,0.00,,---,0.01,853.00,VWS V14.01,2013-07-13 21:40:00,
2013-07-13 14:45:00,71.6,51.5,30.17,WNW,285,3.0,4.0,49,0.00,,---,0.01,847.00,VWS V14.01,2013-07-13 21:45:00,
2013-07-13 14:50:00,71.6,51.5,30.17,WNW,300,3.0,6.0,49,0.00,,---,0.01,842.00,VWS V14.01,2013-07-13 21:50:00,
2013-07-13 14:55:00,71.6,51.5,30.16,NNW,327,8.0,10.0,49,0.00,,---,0.01,833.00,VWS V14.01,2013-07-13 21:55:00,
2013-07-13 15:00:00,72.0,52.4,30.16,WNW,296,7.0,8.0,50,0.00,,---,0.01,798.00,VWS V14.01,2013-07-13 22:00:00,
2013-07-13 15:05:00,72.1,51.3,30.16,WNW,286,8.0,8.0,48,0.00,,---,0.01,823.00,VWS V14.01,2013-07-13 22:05:00,
2013-07-13 15:10:00,72.2,53.1,30.16,NW,314,7.0,8.0,51,0.00,,---,0.01,819.00,VWS V14.01,2013-07-13 22:10:00,
2013-07-13 15:15:00,72.4,53.3,30.16,NW,317,4.0,6.0,51,0.00,,---,0.01,810.00,VWS V14.01,2013-07-13 22:15:00,
2013-07-13 15:20:00,72.6,51.8,30.15,WNW,282,4.0,11.0,48,0.00,,---,0.01,803.00,VWS V14.01,2013-07-13 22:20:00,
2013-07-13 15:25:00,72.4,50.5,30.16,NW,315,7.0,7.0,46,0.00,,---,0.01,796.00,VWS V14.01,2013-07-13 22:25:00,
2013-07-13 15:30:00,72.7,54.1,30.16,NW,323,9.0,11.0,52,0.00,,---,0.01,789.00,VWS V14.01,2013-07-13 22:30:00,
2013-07-13 15:35:00,72.6,51.2,30.16,NW,311,9.0,10.0,47,0.00,,---,0.01,780.00,VWS V14.01,2013-07-13 22:35:00,
2013-07-13 15:40:00,72.4,52.2,30.15,NNW,328,8.0,8.0,49,0.00,,---,0.01,770.00,VWS V14.01,2013-07-13 22:40:00,
2013-07-13 15:45:00,72.5,52.3,30.15,NNW,336,10.0,10.0,49,0.00,,---,0.01,763.00,VWS V14.01,2013-07-13 22:45:00,
2013-07-13 15:50:00,72.3,51.5,30.15,WNW,301,5.0,7.0,48,0.00,,---,0.01,752.00,VWS V14.01,2013-07-13 22:50:00,
2013-07-13 15:55:00,73.0,52.2,30.15,WNW,295,8.0,9.0,48,0.00,,---,0.01,742.00,VWS V14.01,2013-07-13 22:55:00,
2013-07-13 16:00:00,72.8,52.0,30.15,NW,319,12.0,12.0,48,0.00,,---,0.01,733.00,VWS V14.01,2013-07-13 23:00:00,
2013-07-13 16:05:00,72.6,51.8,30.15,NW,325,7.0,7.0,48,0.00,,---,0.01,722.00,VWS V14.01,2013-07-13 23:05:00,
2013-07-13 16:10:00,72.8,51.4,30.14,WNW,289,9.0,9.0,47,0.00,,---,0.01,715.00,VWS V14.01,2013-07-13 23:10:00,
2013-07-13 16:15:00,73.0,52.7,30.14,NW,308,7.0,10.0,49,0.00,,---,0.01,705.00,VWS V14.01,2013-07-13 23:15:00,
2013-07-13 16:20:00,73.3,52.5,30.14,West,281,6.0,8.0,48,0.00,,---,0.01,663.00,VWS V14.01,2013-07-13 23:20:00,
2013-07-13 16:25:00,73.0,51.6,30.14,WNW,301,6.0,12.0,47,0.00,,---,0.01,684.00,VWS V14.01,2013-07-13 23:25:00,
2013-07-13 16:30:00,72.8,51.4,30.14,WNW,298,6.0,9.0,47,0.00,,---,0.01,671.00,VWS V14.01,2013-07-13 23:30:00,
2013-07-13 16:35:00,73.1,51.7,30.13,WNW,289,9.0,12.0,47,0.00,,---,0.01,661.00,VWS V14.01,2013-07-13 23:35:00,
2013-07-13 16:40:00,72.9,52.1,30.14,WNW,295,3.0,8.0,48,0.00,,---,0.01,650.00,VWS V14.01,2013-07-13 23:40:00,
2013-07-13 16:45:00,72.8,52.0,30.13,NNW,347,4.0,7.0,48,0.00,,---,0.01,640.00,VWS V14.01,2013-07-13 23:45:00,
2013-07-13 16:50:00,72.9,51.5,30.13,West,279,5.0,5.0,47,0.00,,---,0.01,628.00,VWS V14.01,2013-07-13 23:50:00,
2013-07-13 16:55:00,73.2,51.8,30.13,WNW,303,10.0,10.0,47,0.00,,---,0.01,615.00,VWS V14.01,2013-07-13 23:55:00,
2013-07-13 17:00:00,73.3,51.9,30.13,WSW,255,4.0,6.0,47,0.00,,---,0.01,605.00,VWS V14.01,2013-07-14 00:00:00,
2013-07-13 17:05:00,73.2,51.2,30.13,WNW,296,7.0,10.0,46,0.00,,---,0.01,591.00,VWS V14.01,2013-07-14 00:05:00,
2013-07-13 17:10:00,73.3,52.5,30.13,West,269,4.0,5.0,48,0.00,,---,0.01,582.00,VWS V14.01,2013-07-14 00:10:00,
2013-07-13 17:15:00,73.3,51.3,30.13,NW,319,6.0,8.0,46,0.00,,---,0.01,568.00,VWS V14.01,2013-07-14 00:15:00,
2013-07-13 17:20:00,73.4,52.5,30.13,NW,324,8.0,8.0,48,0.00,,---,0.01,554.00,VWS V14.01,2013-07-14 00:20:00,
2013-07-13 17:25:00,73.3,51.3,30.13,NW,309,8.0,8.0,46,0.00,,---,0.01,413.00,VWS V14.01,2013-07-14 00:25:00,
2013-07-13 17:30:00,73.3,51.3,30.13,West,273,5.0,9.0,46,0.00,,---,0.01,529.00,VWS V14.01,2013-07-14 00:30:00,
2013-07-13 17:35:00,73.1,52.3,30.13,North,349,8.0,8.0,48,0.00,,---,0.01,517.00,VWS V14.01,2013-07-14 00:35:00,
2013-07-13 17:40:00,73.5,52.1,30.13,WNW,288,2.0,6.0,47,0.00,,---,0.01,504.00,VWS V14.01,2013-07-14 00:40:00,
2013-07-13 17:45:00,73.7,51.1,30.12,NW,317,4.0,5.0,45,0.00,,---,0.01,490.00,VWS V14.01,2013-07-14 00:45:00,
2013-07-13 17:50:00,73.8,51.8,30.12,West,279,3.0,4.0,46,0.00,,---,0.01,476.00,VWS V14.01,2013-07-14 00:50:00,
2013-07-13 17:55:00,74.0,52.5,30.12,NNW,327,6.0,9.0,47,0.00,,---,0.01,462.00,VWS V14.01,2013-07-14 00:55:00,
2013-07-13 18:00:00,73.7,51.1,30.12,NW,317,6.0,8.0,45,0.00,,---,0.01,448.00,VWS V14.01,2013-07-14 01:00:00,
2013-07-13 18:05:00,73.5,50.9,30.12,NW,317,6.0,6.0,45,0.00,,---,0.01,436.00,VWS V14.01,2013-07-14 01:05:00,
2013-07-13 18:10:00,73.7,53.4,30.13,NW,325,5.0,5.0,49,0.00,,---,0.01,418.00,VWS V14.01,2013-07-14 01:10:00,
2013-07-13 18:15:00,73.6,51.0,30.12,NNW,327,8.0,8.0,45,0.00,,---,0.01,408.00,VWS V14.01,2013-07-14 01:15:00,
2013-07-13 18:20:00,73.4,50.8,30.12,NW,323,10.0,10.0,45,0.00,,---,0.01,394.00,VWS V14.01,2013-07-14 01:20:00,
2013-07-13 18:25:00,73.3,51.3,30.13,NNW,340,7.0,7.0,46,0.00,,---,0.01,378.00,VWS V14.01,2013-07-14 01:25:00,
2013-07-13 18:30:00,73.4,51.4,30.12,NNW,331,9.0,9.0,46,0.00,,---,0.01,362.00,VWS V14.01,2013-07-14 01:30:00,
2013-07-13 18:35:00,73.2,50.6,30.12,NW,319,3.0,4.0,45,0.00,,---,0.01,348.00,VWS V14.01,2013-07-14 01:35:00,
2013-07-13 18:40:00,73.1,51.7,30.12,NW,318,7.0,7.0,47,0.00,,---,0.01,334.00,VWS V14.01,2013-07-14 01:40:00,
2013-07-13 18:45:00,73.0,51.0,30.12,NW,311,3.0,7.0,46,0.00,,---,0.01,318.00,VWS V14.01,2013-07-14 01:45:00,
2013-07-13 18:50:00,73.1,52.8,30.13,NW,312,0.0,4.0,49,0.00,,---,0.01,306.00,VWS V14.01,2013-07-14 01:50:00,
2013-07-13 18:55:00,72.9,51.5,30.13,WNW,302,9.0,9.0,47,0.00,,---,0.01,292.00,VWS V14.01,2013-07-14 01:55:00,
2013-07-13 19:00:00,72.7,51.3,30.12,WNW,299,6.0,6.0,47,0.00,,---,0.01,278.00,VWS V14.01,2013-07-14 02:00:00,
2013-07-13 19:05:00,72.5,51.7,30.12,WNW,294,6.0,10.0,48,0.00,,---,0.01,262.00,VWS V14.01,2013-07-14 02:05:00,
2013-07-13 19:10:00,72.4,52.2,30.12,WNW,295,5.0,8.0,49,0.00,,---,0.01,246.00,VWS V14.01,2013-07-14 02:10:00,
2013-07-13 19:15:00,72.2,51.4,30.12,NW,309,4.0,6.0,48,0.00,,---,0.01,230.00,VWS V14.01,2013-07-14 02:15:00,
2013-07-13 19:20:00,72.1,53.0,30.13,WNW,301,3.0,6.0,51,0.00,,---,0.01,213.00,VWS V14.01,2013-07-14 02:20:00,
2013-07-13 19:25:00,72.0,51.8,30.12,WNW,298,5.0,5.0,49,0.00,,---,0.01,199.00,VWS V14.01,2013-07-14 02:25:00,
2013-07-13 19:30:00,72.1,52.5,30.13,NW,313,4.0,4.0,50,0.00,,---,0.01,181.00,VWS V14.01,2013-07-14 02:30:00,
2013-07-13 19:35:00,72.0,54.5,30.12,NW,322,1.0,2.0,54,0.00,,---,0.01,146.00,VWS V14.01,2013-07-14 02:35:00,
2013-07-13 19:40:00,72.0,52.4,30.13,NNW,327,3.0,6.0,50,0.00,,---,0.01,149.00,VWS V14.01,2013-07-14 02:40:00,
2013-07-13 19:45:00,71.8,51.6,30.13,NNW,327,5.0,7.0,49,0.00,,---,0.01,132.00,VWS V14.01,2013-07-14 02:45:00,
2013-07-13 19:50:00,71.6,52.5,30.13,West,279,6.0,6.0,51,0.00,,---,0.01,118.00,VWS V14.01,2013-07-14 02:50:00,
2013-07-13 19:55:00,71.4,52.3,30.12,NW,311,3.0,6.0,51,0.00,,---,0.01,102.00,VWS V14.01,2013-07-14 02:55:00,
2013-07-13 20:00:00,71.2,52.2,30.13,NNW,335,3.0,5.0,51,0.00,,---,0.01,84.00,VWS V14.01,2013-07-14 03:00:00,
2013-07-13 20:05:00,71.0,53.0,30.12,NW,321,6.0,6.0,53,0.00,,---,0.01,76.00,VWS V14.01,2013-07-14 03:05:00,
2013-07-13 20:10:00,70.8,52.8,30.12,NNW,330,3.0,3.0,53,0.00,,---,0.01,65.00,VWS V14.01,2013-07-14 03:10:00,
2013-07-13 20:15:00,70.5,52.6,30.13,NW,314,3.0,6.0,53,0.00,,---,0.01,53.00,VWS V14.01,2013-07-14 03:15:00,
2013-07-13 20:20:00,70.1,53.2,30.13,NNW,337,1.0,5.0,55,0.00,,---,0.01,42.00,VWS V14.01,2013-07-14 03:20:00,
2013-07-13 20:25:00,69.7,52.8,30.13,NNW,342,1.0,4.0,55,0.00,,---,0.01,33.00,VWS V14.01,2013-07-14 03:25:00,
2013-07-13 20:30:00,69.5,52.6,30.13,NNW,327,1.0,3.0,55,0.00,,---,0.01,25.00,VWS V14.01,2013-07-14 03:30:00,
2013-07-13 20:35:00,69.0,53.2,30.13,North,5,1.0,2.0,57,0.00,,---,0.01,19.00,VWS V14.01,2013-07-14 03:35:00,
2013-07-13 20:40:00,68.7,53.3,30.13,NNW,334,0.0,1.0,58,0.00,,---,0.01,14.00,VWS V14.01,2013-07-14 03:40:00,
2013-07-13 20:45:00,68.3,53.0,30.12,North,5,0.0,4.0,58,0.00,,---,0.01,12.00,VWS V14.01,2013-07-14 03:45:00,
2013-07-13 20:50:00,68.1,53.2,30.13,NW,326,1.0,3.0,59,0.00,,---,0.01,11.00,VWS V14.01,2013-07-14 03:50:00,
2013-07-13 20:55:00,67.8,53.4,30.13,North,5,1.0,2.0,60,0.00,,---,0.01,9.00,VWS V14.01,2013-07-14 03:55:00,
2013-07-13 21:00:00,67.4,53.5,30.12,North,5,3.0,3.0,61,0.00,,---,0.01,5.00,VWS V14.01,2013-07-14 04:00:00,
2013-07-13 21:01:00,67.4,53.5,30.13,North,5,2.0,3.0,61,0.00,,---,0.01,5.00,VWS V14.01,2013-07-14 04:01:00,
2013-07-13 21:05:00,67.1,53.7,30.13,North,5,1.0,3.0,62,0.00,,---,0.01,0.00,VWS V14.01,2013-07-14 04:05:00,
2013-07-13 21:06:00,66.9,53.5,30.13,NNE,18,4.0,4.0,62,0.00,,---,0.01,0.00,VWS V14.01,2013-07-14 04:06:00,
2013-07-13 21:10:00,66.8,53.8,30.13,North,9,2.0,4.0,63,0.00,,---,0.01,0.00,VWS V14.01,2013-07-14 04:10:00,
2013-07-13 21:11:00,66.7,53.7,30.13,North,9,0.0,2.0,63,0.00,,---,0.01,0.00,VWS V14.01,2013-07-14 04:11:00,
2013-07-13 21:15:00,66.6,53.6,30.13,North,9,0.0,2.0,63,0.00,,---,0.01,0.00,VWS V14.01,2013-07-14 04:15:00,
2013-07-13 21:16:00,66.5,54.0,30.13,NNE,12,1.0,1.0,64,0.00,,---,0.01,0.00,VWS V14.01,2013-07-14 04:16:00,
2013-07-13 21:20:00,66.3,53.8,30.13,North,5,0.0,2.0,64,0.00,,---,0.01,0.00,VWS V14.01,2013-07-14 04:20:00,
2013-07-13 21:21:00,66.1,53.6,30.13,North,5,1.0,1.0,64,0.00,,---,0.01,0.00,VWS V14.01,2013-07-14 04:21:00,
2013-07-13 21:25:00,66.0,53.9,30.13,North,5,0.0,2.0,65,0.00,,---,0.01,0.00,VWS V14.01,2013-07-14 04:25:00,
2013-07-13 21:26:00,65.9,53.8,30.13,North,5,0.0,1.0,65,0.00,,---,0.01,0.00,VWS V14.01,2013-07-14 04:26:00,
2013-07-13 21:30:00,65.8,53.7,30.13,North,5,0.0,1.0,65,0.00,,---,0.01,0.00,VWS V14.01,2013-07-14 04:30:00,
2013-07-13 21:31:00,65.7,54.0,30.13,North,5,1.0,1.0,66,0.00,,---,0.01,0.00,VWS V14.01,2013-07-14 04:31:00,
2013-07-13 21:35:00,65.5,53.8,30.13,North,5,1.0,1.0,66,0.00,,---,0.01,0.00,VWS V14.01,2013-07-14 04:35:00,
2013-07-13 21:36:00,65.5,53.8,30.13,North,360,2.0,2.0,66,0.00,,---,0.01,0.00,VWS V14.01,2013-07-14 04:36:00,
2013-07-13 21:40:00,65.3,54.1,30.13,NNW,342,1.0,2.0,67,0.00,,---,0.01,0.00,VWS V14.01,2013-07-14 04:40:00,
2013-07-13 21:41:00,65.2,54.0,30.14,NNW,342,0.0,1.0,67,0.00,,---,0.01,0.00,VWS V14.01,2013-07-14 04:41:00,
2013-07-13 21:45:00,65.0,54.2,30.13,NNW,342,0.0,1.0,68,0.00,,---,0.01,0.00,VWS V14.01,2013-07-14 04:45:00,
2013-07-13 21:46:00,64.9,54.1,30.13,NNW,342,0.0,0.0,68,0.00,,---,0.01,0.00,VWS V14.01,2013-07-14 04:46:00,
2013-07-13 21:50:00,64.8,54.0,30.14,NNW,342,0.0,0.0,68,0.00,,---,0.01,0.00,VWS V14.01,2013-07-14 04:50:00,
2013-07-13 21:51:00,64.7,53.9,30.14,NNW,342,0.0,0.0,68,0.00,,---,0.01,0.00,VWS V14.01,2013-07-14 04:51:00,
2013-07-13 21:55:00,64.5,54.1,30.14,NNW,342,0.0,0.0,69,0.00,,---,0.01,0.00,VWS V14.01,2013-07-14 04:55:00,
2013-07-13 21:56:00,64.4,54.0,30.14,NNW,342,0.0,0.0,69,0.00,,---,0.01,0.00,VWS V14.01,2013-07-14 04:56:00,
2013-07-13 22:00:00,64.1,53.7,30.14,NNW,342,0.0,0.0,69,0.00,,---,0.01,0.00,VWS V14.01,2013-07-14 05:00:00,
2013-07-13 22:01:00,64.0,54.0,30.14,NNW,342,0.0,0.0,70,0.00,,---,0.01,0.00,VWS V14.01,2013-07-14 05:01:00,
2013-07-13 22:05:00,63.9,53.9,30.14,NNW,342,1.0,1.0,70,0.00,,---,0.01,0.00,VWS V14.01,2013-07-14 05:05:00,
2013-07-13 22:06:00,63.8,53.8,30.14,NNW,342,0.0,1.0,70,0.00,,---,0.01,0.00,VWS V14.01,2013-07-14 05:06:00,
2013-07-13 22:10:00,63.7,53.7,30.14,NNW,342,0.0,1.0,70,0.00,,---,0.01,0.00,VWS V14.01,2013-07-14 05:10:00,
2013-07-13 22:11:00,63.6,53.7,30.14,NNW,342,1.0,1.0,70,0.00,,---,0.01,0.00,VWS V14.01,2013-07-14 05:11:00,
2013-07-13 22:15:00,63.4,53.8,30.14,NNW,342,0.0,1.0,71,0.00,,---,0.01,0.00,VWS V14.01,2013-07-14 05:15:00,
2013-07-13 22:16:00,63.5,53.5,30.14,NNW,342,0.0,0.0,70,0.00,,---,0.01,0.00,VWS V14.01,2013-07-14 05:16:00,
2013-07-13 22:20:00,63.4,53.5,30.14,NNW,342,0.0,0.0,70,0.00,,---,0.01,0.00,VWS V14.01,2013-07-14 05:20:00,
2013-07-13 22:21:00,63.2,53.3,30.14,NNW,342,0.0,0.0,70,0.00,,---,0.01,0.00,VWS V14.01,2013-07-14 05:21:00,
2013-07-13 22:25:00,63.2,53.3,30.14,NNW,342,0.0,1.0,70,0.00,,---,0.01,0.00,VWS V14.01,2013-07-14 05:25:00,
2013-07-13 22:26:00,63.2,53.3,30.14,NNW,342,0.0,0.0,70,0.00,,---,0.01,0.00,VWS V14.01,2013-07-14 05:26:00,
2013-07-13 22:30:00,63.2,53.3,30.14,NNW,342,0.0,0.0,70,0.00,,---,0.01,0.00,VWS V14.01,2013-07-14 05:30:00,
2013-07-13 22:31:00,63.1,52.8,30.14,NNW,342,0.0,0.0,69,0.00,,---,0.01,0.00,VWS V14.01,2013-07-14 05:31:00,
2013-07-13 22:35:00,63.0,52.7,30.14,NNW,342,1.0,1.0,69,0.00,,---,0.01,0.00,VWS V14.01,2013-07-14 05:35:00,
2013-07-13 22:36:00,62.9,52.2,30.14,NNE,30,0.0,3.0,68,0.00,,---,0.01,0.00,VWS V14.01,2013-07-14 05:36:00,
2013-07-13 22:40:00,62.9,52.2,30.14,NE,44,1.0,3.0,68,0.00,,---,0.01,0.00,VWS V14.01,2013-07-14 05:40:00,
2013-07-13 22:41:00,62.9,51.8,30.14,NE,52,0.0,3.0,67,0.00,,---,0.01,0.00,VWS V14.01,2013-07-14 05:41:00,
2013-07-13 22:45:00,62.7,51.6,30.14,NNE,24,0.0,3.0,67,0.00,,---,0.01,0.00,VWS V14.01,2013-07-14 05:45:00,
2013-07-13 22:46:00,62.6,51.5,30.14,NNE,24,0.0,1.0,67,0.00,,---,0.01,0.00,VWS V14.01,2013-07-14 05:46:00,
2013-07-13 22:50:00,62.5,51.4,30.14,NNE,12,0.0,4.0,67,0.00,,---,0.01,0.00,VWS V14.01,2013-07-14 05:50:00,
2013-07-13 22:51:00,62.3,50.8,30.14,North,5,1.0,4.0,66,0.00,,---,0.01,0.00,VWS V14.01,2013-07-14 05:51:00,
2013-07-13 22:55:00,62.0,51.3,30.14,North,5,0.0,4.0,68,0.00,,---,0.01,0.00,VWS V14.01,2013-07-14 05:55:00,
2013-07-13 22:56:00,61.8,51.1,30.14,North,5,1.0,2.0,68,0.00,,---,0.01,0.00,VWS V14.01,2013-07-14 05:56:00,
2013-07-13 23:00:00,61.4,51.2,30.14,North,5,0.0,2.0,69,0.00,,---,0.01,0.00,VWS V14.01,2013-07-14 06:00:00,
2013-07-13 23:01:00,61.3,51.1,30.14,North,5,0.0,0.0,69,0.00,,---,0.01,0.00,VWS V14.01,2013-07-14 06:01:00,
2013-07-13 23:05:00,61.2,50.6,30.15,North,5,0.0,0.0,68,0.00,,---,0.01,0.00,VWS V14.01,2013-07-14 06:05:00,
2013-07-13 23:06:00,61.2,51.0,30.15,North,5,0.0,0.0,69,0.00,,---,0.01,0.00,VWS V14.01,2013-07-14 06:06:00,
2013-07-13 23:10:00,61.2,50.6,30.15,North,5,0.0,0.0,68,0.00,,---,0.01,0.00,VWS V14.01,2013-07-14 06:10:00,
2013-07-13 23:11:00,61.2,50.6,30.15,North,5,0.0,0.0,68,0.00,,---,0.01,0.00,VWS V14.01,2013-07-14 06:11:00,
2013-07-13 23:15:00,61.1,50.9,30.15,North,5,1.0,1.0,69,0.00,,---,0.01,0.00,VWS V14.01,2013-07-14 06:15:00,
2013-07-13 23:16:00,61.0,50.8,30.15,NE,36,0.0,2.0,69,0.00,,---,0.01,0.00,VWS V14.01,2013-07-14 06:16:00,
2013-07-13 23:20:00,60.8,50.2,30.15,NE,35,0.0,2.0,68,0.00,,---,0.01,0.00,VWS V14.01,2013-07-14 06:20:00,
2013-07-13 23:21:00,60.8,50.2,30.15,NNE,27,0.0,2.0,68,0.00,,---,0.01,0.00,VWS V14.01,2013-07-14 06:21:00,
2013-07-13 23:25:00,60.6,50.4,30.15,NNE,27,0.0,2.0,69,0.00,,---,0.01,0.00,VWS V14.01,2013-07-14 06:25:00,
2013-07-13 23:26:00,60.5,50.3,30.15,NE,36,0.0,0.0,69,0.00,,---,0.01,0.00,VWS V14.01,2013-07-14 06:26:00,
2013-07-13 23:30:00,60.5,50.3,30.15,NE,36,0.0,0.0,69,0.00,,---,0.01,0.00,VWS V14.01,2013-07-14 06:30:00,
2013-07-13 23:31:00,60.3,50.5,30.15,NE,36,0.0,0.0,70,0.00,,---,0.01,0.00,VWS V14.01,2013-07-14 06:31:00,
2013-07-13 23:35:00,60.3,50.1,30.15,NE,36,0.0,0.0,69,0.00,,---,0.01,0.00,VWS V14.01,2013-07-14 06:35:00,
2013-07-13 23:36:00,60.2,50.0,30.15,NE,36,0.0,0.0,69,0.00,,---,0.01,0.00,VWS V14.01,2013-07-14 06:36:00,
2013-07-13 23:40:00,60.2,49.6,30.15,NE,36,0.0,2.0,68,0.00,,---,0.01,0.00,VWS V14.01,2013-07-14 06:40:00,
2013-07-13 23:41:00,60.0,49.4,30.15,NE,36,0.0,0.0,68,0.00,,---,0.01,0.00,VWS V14.01,2013-07-14 06:41:00,
2013-07-13 23:45:00,59.8,49.6,30.15,NE,36,0.0,0.0,69,0.00,,---,0.01,0.00,VWS V14.01,2013-07-14 06:45:00,
2013-07-13 23:46:00,59.8,49.6,30.15,NE,36,0.0,0.0,69,0.00,,---,0.01,0.00,VWS V14.01,2013-07-14 06:46:00,
2013-07-13 23:50:00,59.7,49.9,30.15,NE,36,0.0,0.0,70,0.00,,---,0.01,0.00,VWS V14.01,2013-07-14 06:50:00,
2013-07-13 23:51:00,59.6,49.8,30.15,NE,36,0.0,0.0,70,0.00,,---,0.01,0.00,VWS V14.01,2013-07-14 06:51:00,
2013-07-13 23:55:00,59.4,50.0,30.15,NE,36,0.0,1.0,71,0.00,,---,0.01,0.00,VWS V14.01,2013-07-14 06:55:00,
2013-07-13 23:56:00,59.4,50.4,30.15,NE,36,0.0,1.0,72,0.00,,---,0.01,0.00,VWS V14.01,2013-07-14 06:56:00,